FW3877 Weather Reports


Display with metric or nautical units.
time (UTC)temp
F
wind
direction
speed
MPH
gust
MPH
rain 1hr
in
rain 24hr
in
rain mn
in
humidity
%
barometer
mb
20260502121204 52 322 2.0 5.0 0.00 0.00 0.00 89 1012.5
20260502120703 53 0 3.0 7.0 0.00 0.00 0.00 89 1012.3
20260502120204 55 314 2.0 3.0 0.00 0.00 0.00 88 1012.5
20260502113703 55 304 2.0 3.0 0.00 0.00 0.00 87 1012.5
20260502112703 56 297 1.0 3.0 0.00 0.00 0.00 87 1012.4
20260502111704 57 320 2.0 5.0 0.00 0.00 0.00 86 1012.3
20260502111204 58 277 3.0 7.0 0.00 0.00 0.00 86 1012.2
20260502110704 57 281 1.0 5.0 0.00 0.00 0.00 86 1012.3
20260502110204 58 48 2.0 3.0 0.00 0.00 0.00 86 1012.4
20260502105703 57 146 3.0 6.0 0.00 0.00 0.00 87 1012.4
20260502105204 57 56 3.0 7.0 0.00 0.00 0.00 88 1012.4
20260502104704 56 76 2.0 6.0 0.00 0.00 0.00 89 1012.4
20260502104203 55 109 1.0 3.0 0.00 0.00 0.00 89 1012.4
20260502103703 55 149 1.0 3.0 0.00 0.00 0.00 89 1012.4
20260502103203 55 84 1.0 3.0 0.00 0.00 0.00 90 1012.5
20260502102703 55 223 1.0 3.0 0.00 0.00 0.00 91 1012.6
20260502102204 55 202 2.0 3.0 0.00 0.00 0.00 91 1012.7
20260502101705 55 149 3.0 7.0 0.00 0.00 0.00 91 1012.8
20260502101204 54 195 2.0 6.0 0.00 0.00 0.00 92 1012.7
20260502100203 54 162 2.0 6.0 0.00 0.00 0.00 92 1012.8
20260502091204 53 204 2.0 5.0 0.00 0.00 0.00 94 1013.0
20260502090705 52 121 1.0 3.0 0.00 0.00 0.00 95 1013.1
20260502090203 52 60 1.0 3.0 0.00 0.00 0.00 95 1013.2
20260502071203 50 93 0.0 0.0 0.00 0.00 0.00 96 1013.1
20260502070704 50 93 0.0 0.0 0.00 0.00 0.00 95 1013.1
20260502070204 50 93 0.0 0.0 0.00 0.00 0.00 95 1013.0
20260502065704 50 93 0.0 0.0 0.00 0.00 0.00 96 1013.1
20260502064703 49 93 0.0 0.0 0.00 0.00 0.00 95 1013.1
20260502064204 49 93 0.0 0.0 0.00 0.00 0.00 95 1013.0
20260502063704 49 93 0.0 0.0 0.00 0.00 0.00 95 1013.1
20260502063203 48 93 0.0 0.0 0.00 0.00 0.00 95 1013.1
20260502062703 48 93 0.0 0.0 0.00 0.00 0.00 95 1013.1